Weather in Sitnikovo

Russia / Omsk Oblast     55°39′50″N   74°47′38″E
temp.,
°C
wind,
m/s
gust,
m/s
humid.,
%
clouds,
%
prec.,
mm/h
press.,
hPa
HPBL,
m
18 may, tue
tue1800:00+21nnw610464 0.0 1010334
03:00+16wnw49665 0.0 1009160
06:00+15nw4107968 0.0 1009275
09:00+19nw466250 0.0 1009590
12:00+23nw564734 0.0 10091333
15:00+25wnw6939100 0.0 10072827
18:00+21n10125640 0.1 10061644
21:00+14nne6108640 0.7 1010541
19 may, wed
wed1900:00+11nne71186100 0.8 1012644
03:00+10nne61080100 0.0 1013701
06:00+10nne61078100 0.1 1014653
09:00+13nne78525 0.0 10151152
12:00+15nne78355 0.0 10162067
15:00+15n7835100 0.0 10172440
18:00+14n783693 0.0 10172224
21:00+10n495034 0.0 1018249
20 may, thu
thu2000:00+8nne595780 0.1 1020406
03:00+5nne511645 0.0 1021328
06:00+3n495510 0.0 1023399
09:00+7nne573539 0.0 10241249
12:00+10nnw563184 0.0 10241511
15:00+11nnw5630100 0.0 10231578
18:00+11nw5636100 0.0 10231360
21:00+7w1261100 0.1 102364
21 may, fri
fri2100:00+6ssw3682100 0.5 1022326
03:00+6s3693100 0.4 1022253
06:00+7sse489096 0.4 1022290
09:00+11s446379 0.0 1022663
12:00+16s435068 0.0 10221011
15:00+19sw33455 0.0 10221126
18:00+20wsw45465 0.0 10211046
21:00+16ssw47655 0.0 102193
22 may, sat
sat2200:00+14sw513685 0.3 1020234
03:00+14wsw5117558 0.0 1020195
06:00+14wnw378272 0.0 1020121
09:00+22nw46523 0.0 1020332
12:00+27nw59370 0.0 10211595
15:00+28nw67330 0.0 10202198
18:00+28wnw46376 0.0 10202080
21:00+21w33530 0.0 102127